Voltar ao catálogo

TJS-16

AtivoMilitarGEO
NORAD 63397·PAYLOAD·🇨🇳 China

Lançado Mar 29, 2025 de Wenchang Space Launch Site

Loading…

TLE

AtualizadoSource: Space-Track

Época: Sep 14, 2026, 18:47 UTC

1 63397U 25064A   26257.78290056 -.00000111  00000-0  00000+0 0  9997
2 63397   1.3231  80.6916 0001707 251.8082 103.7705  1.00273295  5288

Acompanhe TJS-16 em tempo real com AllMySat

Download on the App Store